Wind_Speed
18 19 20 23 21 22 19 19 18 13 14 14 11 13 12 14 19 14 12 8 12 18 16 14 15 15 11 13 20 15 9 15 25 23 23 6 13 27 34 24 42 25 37 22 31
25 18 19 22 23 22 20 18 17 13 12 12 11 11 11 15 17 12 8 8 9 14 12 13 6 6 9 14 11 11 12 21 15 6 9 8 13 20 23 31 33 21 26 16 35
20 19 19 17 22 22 21 18 16 12 10 11 11 9 12 14 12 3 8 9 12 12 12 8 6 6 11 11 18 13 14 18 10 4 8 14 17 27 19 25 27 20 20 25 26
22 17 19 22 22 18 20 19 15 12 9 10 9 9 10 6 4 4 9 11 9 7 9 7 7 11 10 10 16 8 22 11 6 2 3 6 22 18 29 36 23 18 48 24 31
23 19 16 17 17 18 19 18 15 12 8 9 9 9 9 7 10 5 9 10 7 5 6 5 9 12 12 12 12 16 7 4 4 6 3 10 19 21 26 22 27 32 48 29 28
23 21 14 17 19 17 18 18 16 11 9 9 9 9 8 9 3 4 8 7 4 5 4 6 6 10 14 9 11 6 7 7 5 7 4 5 20 13 22 23 17 25 38 27 30
24 23 12 15 14 20 16 17 14 11 9 9 8 9 12 15 4 5 6 7 6 3 6 8 8 5 6 2 6 5 8 8 5 2 5 10 12 17 25 21 16 21 16 18 22
25 24 19 13 11 18 17 15 13 9 9 8 8 5 10 9 7 6 5 7 5 6 6 7 8 10 8 3 5 8 12 10 12 6 4 5 12 12 17 19 18 18 18 22 20
26 26 25 17 16 15 18 15 12 10 8 5 7 5 10 6 5 5 4 5 9 6 8 8 7 5 4 4 6 11 8 12 8 9 6 5 9 6 14 19 16 14 20 24 21
26 26 25 20 18 18 16 12 9 10 10 6 6 5 9 1 4 6 4 7 4 4 6 8 5 5 4 5 3 9 16 12 17 7 3 6 11 7 18 13 14 13 26 25 24
25 26 21 19 20 20 15 4 2 3 12 10 3 4 4 5 5 3 3 6 7 6 9 7 6 8 4 8 13 11 12 13 2 5 5 9 7 7 12 8 11 14 15 22 23
22 25 20 17 13 7 12 5 7 3 7 13 12 10 7 4 2 3 3 3 6 9 5 5 9 5 7 12 10 9 9 6 3 1 4 7 10 11 8 9 11 13 17 20 19
22 23 20 16 16 12 10 8 7 4 4 2 7 6 4 4 2 1 4 3 8 10 10 10 7 7 7 12 9 5 10 3 9 3 8 9 15 10 8 10 9 10 14 24 27
23 20 19 14 13 9 6 6 6 3 2 5 4 4 3 2 3 2 2 2 3 7 6 9 5 6 9 11 8 14 4 7 5 7 3 2 4 13 12 14 13 14 16 18 20
23 17 15 11 11 14 4 4 5 2 3 3 4 4 4 3 1 3 1 2 8 7 4 3 7 8 10 8 7 6 9 9 9 9 8 4 5 9 12 13 15 14 15 15 15
18 14 12 9 14 14 7 8 2 2 3 3 4 5 5 3 2 2 1 2 4 7 7 10 6 5 8 11 9 11 10 7 6 4 4 3 2 9 8 12 13 15 20 18 19
17 10 13 11 10 10 7 4 3 3 3 4 3 4 4 5 4 2 2 4 4 4 1 5 3 4 5 9 8 9 9 3 3 3 2 5 4 6 6 4 5 10 14 16 19
8 13 16 17 16 9 11 4 5 3 2 2 3 6 2 6 2 4 3 2 3 6 5 5 0 6 8 6 7 10 9 5 4 2 1 3 1 4 3 6 5 2 1 8 12
14 11 5 6 7 14 7 4 4 2 2 4 5 3 4 4 1 3 1 3 5 6 6 5 2 3 4 8 6 4 4 8 6 3 3 4 4 9 13 7 1 2 2 2 4
11 10 6 7 16 15 3 3 2 2 1 1 4 2 2 4 2 1 1 4 3 5 5 5 5 2 5 7 1 4 1 2 1 3 4 5 1 8 12 10 7 5 3 6 2
6 4 4 9 12 5 1 3 3 3 2 4 4 2 3 2 1 2 4 3 5 5 4 6 2 3 6 6 9 4 3 4 1 4 3 2 6 8 10 9 8 5 8 9 8
6 2 5 12 3 2 0 3 4 3 1 2 2 4 4 2 2 2 2 5 7 5 6 6 5 5 9 6 5 6 5 4 3 4 2 3 4 9 13 11 7 8 9 8 10
5 4 4 6 2 2 2 3 3 3 0 2 3 3 2 2 1 2 2 3 7 4 5 7 1 4 4 3 8 4 5 6 1 2 3 4 3 12 15 15 14 11 12 13 13
5 2 5 0 7 2 1 2 2 2 1 3 3 1 0 1 2 2 3 2 3 3 5 3 1 2 5 6 4 7 8 7 5 2 6 4 3 12 14 16 14 13 12 13 14
6 4 5 1 2 3 3 3 2 2 2 2 2 2 4 1 0 1 1 3 3 1 1 1 0 3 5 5 5 8 8 8 1 5 2 6 10 11 12 11 12 10 10 13 16
4 5 9 6 3 3 2 4 4 2 6 4 2 4 2 3 5 4 1 2 3 2 2 3 1 1 1 5 4 1 4 5 6 8 8 9 9 8 12 12 9 8 6 9 14
3 4 3 5 2 2 3 4 6 3 4 6 4 1 4 5 7 7 7 7 4 2 2 1 2 2 3 4 2 2 2 0 2 2 3 6 6 12 12 11 11 12 10 8 11
Wind_Direction
304 320 311 311 320 322 325 327 324 312 310 312 307 304 313 321 323 313 283 262 278 305 313 305 284 263 243 232 220 233 233 240 236 230 263 250 285 259 256 241 260 262 219 201 173
295 306 312 298 305 315 315 319 320 312 308 309 304 310 316 325 323 301 276 332 321 303 310 307 301 192 203 215 212 212 232 244 250 170 309 287 285 287 284 264 261 252 231 170 163
309 294 299 288 297 303 311 313 315 309 316 303 302 309 324 330 312 241 322 323 311 295 301 290 289 220 234 225 208 218 243 248 166 194 312 355 337 254 265 251 249 248 212 150 169
328 296 281 284 282 308 305 308 310 303 313 301 298 310 324 325 291 281 325 327 318 301 285 272 271 227 243 224 214 223 234 272 176 215 302 326 316 277 241 245 245 264 311 172 173
331 318 288 297 288 292 297 304 308 290 298 293 292 302 328 275 268 279 334 330 332 301 299 281 272 247 262 235 225 227 203 227 171 124 45 324 312 289 260 248 239 238 278 164 174
334 331 304 301 276 291 301 306 310 290 289 288 286 297 299 267 225 295 330 328 329 287 300 293 288 279 284 282 228 271 192 190 146 119 128 309 303 296 251 254 226 249 277 159 184
330 327 299 292 285 269 290 304 298 284 278 278 278 292 271 254 262 292 319 316 298 278 309 322 307 297 306 300 274 243 191 181 189 128 146 304 310 226 250 259 288 278 253 182 186
326 326 311 289 298 280 280 304 291 275 269 273 279 279 264 261 256 285 290 315 260 274 286 310 282 267 271 236 207 221 240 237 181 190 203 56 300 313 234 251 257 251 214 193 175
325 325 327 287 275 274 277 296 285 254 240 254 274 232 269 272 254 248 288 303 291 270 259 288 278 272 243 242 221 217 234 228 229 201 186 202 284 317 292 235 262 247 203 188 164
322 325 328 309 278 277 274 294 284 247 227 246 234 246 253 235 253 255 282 305 297 263 280 238 242 255 224 249 260 296 221 228 220 177 214 272 273 291 312 237 247 244 202 179 178
312 319 325 321 303 271 264 292 189 212 214 204 217 264 294 291 287 228 282 300 263 251 253 199 249 249 227 279 289 289 273 263 202 135 242 242 257 221 277 215 225 196 201 177 183
305 311 322 330 332 297 254 211 239 200 268 238 247 250 268 273 290 231 331 277 261 261 203 238 267 273 311 294 289 281 272 257 59 157 255 295 281 215 218 217 207 199 203 171 157
306 305 319 300 319 301 264 240 239 244 260 191 209 239 244 192 270 236 357 318 282 278 262 272 274 323 292 295 290 282 299 344 317 153 242 279 255 200 185 203 181 190 191 171 164
298 297 311 301 311 300 262 227 219 150 273 155 177 178 175 188 228 241 14 342 255 297 303 275 333 292 286 286 313 299 12 297 294 268 322 329 327 185 169 193 186 176 179 183 184
297 291 298 309 267 287 278 207 172 148 225 118 136 153 162 225 88 140 334 270 286 304 274 291 327 326 283 299 327 309 324 296 290 281 314 182 268 133 168 199 189 182 180 182 186
298 287 294 302 259 258 229 171 189 215 199 140 136 158 159 189 193 117 207 240 296 290 263 286 302 289 318 309 283 300 277 255 271 254 272 22 284 137 189 198 196 191 175 177 178
287 293 292 271 257 262 218 182 213 258 169 136 142 163 196 157 174 196 195 213 294 281 251 312 320 303 294 294 244 262 278 250 215 231 285 41 291 7 26 346 194 194 178 171 180
334 319 285 264 231 234 183 229 243 67 105 109 131 141 172 166 141 158 213 232 166 299 311 342 279 2 2 313 312 307 285 272 273 296 144 106 234 46 34 359 116 97 255 154 186
357 332 102 176 195 173 194 241 37 66 122 145 144 174 149 165 324 194 41 27 18 345 348 340 18 327 330 328 329 347 268 331 305 289 320 134 141 79 48 50 267 247 126 215 190
11 343 48 132 164 167 242 338 68 33 103 254 52 332 128 131 200 221 38 42 13 3 337 14 302 50 334 309 186 308 73 307 251 260 231 138 117 49 28 14 18 60 55 97 85
24 13 23 152 155 171 268 31 48 0 317 350 53 62 29 75 350 73 56 77 359 349 328 328 321 358 283 20 347 359 30 10 168 289 317 341 67 9 14 2 338 21 57 76 80
8 6 43 139 84 268 55 17 6 358 246 43 29 36 13 50 83 80 51 33 352 326 337 22 312 304 354 17 348 47 69 20 354 4 352 288 67 54 41 35 29 28 45 56 66
18 7 85 36 66 180 44 38 349 327 299 42 60 23 14 41 19 66 86 43 8 8 15 3 67 294 177 143 69 28 37 30 117 277 338 346 92 48 36 50 36 32 31 42 39
8 25 55 184 359 332 332 41 351 12 355 35 60 348 99 78 17 124 138 69 24 35 1 295 12 304 308 332 332 310 320 331 29 326 333 346 300 64 37 25 30 32 51 53 42
20 23 359 33 324 291 8 10 286 20 27 11 82 329 354 358 238 73 88 156 96 359 10 18 26 331 309 336 312 269 276 297 228 263 303 338 316 319 344 355 9 36 40 38 35
37 19 355 321 90 301 68 44 340 19 348 54 0 45 14 22 14 0 352 294 31 97 48 352 107 337 281 348 349 217 258 268 280 278 290 292 303 4 1 353 355 20 16 6 0
39 31 3 319 96 262 14 2 8 338 60 41 351 64 79 44 67 66 70 72 79 18 45 54 132 283 61 25 347 134 62 111 306 331 316 286 342 339 330 335 332 326 334 340 351
Height
1509 1506 1504 1503 1500 1498 1494 1492 1490 1487 1485 1483 1480 1481 1479 1475 1474 1473 1472 1472 1470 1468 1467 1467 1464 1463 1464 1464 1466 1467 1464 1457 1447 1449 1443 1449 1455 1449 1448 1450 1441 1428 1430 1434 1439
1505 1503 1501 1498 1496 1494 1492 1489 1486 1484 1482 1481 1479 1478 1476 1474 1471 1470 1470 1467 1466 1466 1466 1463 1461 1460 1461 1461 1462 1464 1458 1449 1444 1448 1454 1448 1454 1452 1450 1443 1431 1431 1426 1426 1431
1500 1499 1498 1494 1491 1491 1488 1485 1483 1481 1479 1479 1477 1476 1474 1472 1471 1469 1466 1465 1464 1463 1463 1462 1461 1460 1457 1455 1455 1456 1456 1442 1445 1454 1454 1447 1454 1454 1448 1441 1430 1429 1433 1418 1433
1496 1493 1491 1490 1489 1487 1485 1483 1480 1479 1476 1477 1475 1474 1473 1471 1471 1467 1464 1463 1461 1461 1461 1460 1460 1458 1454 1452 1449 1451 1446 1443 1447 1451 1454 1455 1457 1448 1443 1436 1432 1423 1412 1418 1427
1492 1488 1487 1486 1485 1483 1481 1479 1478 1476 1474 1475 1474 1473 1473 1471 1466 1465 1462 1461 1460 1459 1460 1459 1458 1456 1452 1445 1444 1444 1444 1445 1446 1448 1449 1451 1448 1443 1433 1432 1432 1433 1415 1414 1428
1489 1484 1483 1483 1481 1481 1477 1477 1475 1473 1472 1473 1472 1472 1474 1469 1462 1463 1461 1460 1460 1460 1459 1459 1457 1457 1453 1446 1443 1438 1443 1442 1443 1439 1443 1445 1438 1438 1423 1428 1430 1431 1412 1409 1425
1486 1481 1479 1479 1478 1477 1474 1474 1473 1471 1470 1470 1470 1470 1471 1464 1462 1462 1460 1460 1459 1458 1457 1457 1457 1457 1451 1449 1447 1443 1441 1442 1438 1441 1440 1441 1428 1424 1422 1421 1422 1420 1415 1414 1424
1484 1479 1476 1474 1474 1473 1471 1471 1470 1469 1468 1468 1469 1470 1466 1459 1459 1460 1460 1459 1458 1457 1457 1457 1456 1454 1452 1448 1447 1444 1442 1438 1430 1433 1435 1430 1428 1421 1419 1422 1423 1419 1417 1419 1423
1482 1477 1473 1471 1470 1469 1468 1467 1466 1466 1466 1467 1469 1468 1462 1458 1458 1460 1458 1457 1457 1456 1455 1455 1454 1452 1448 1446 1443 1434 1425 1434 1424 1427 1430 1429 1421 1418 1422 1418 1413 1411 1414 1420 1426
1480 1476 1471 1467 1466 1465 1465 1464 1464 1464 1464 1466 1468 1470 1459 1458 1456 1456 1456 1455 1455 1456 1456 1456 1454 1449 1447 1446 1439 1423 1426 1418 1424 1423 1426 1424 1420 1419 1418 1413 1410 1410 1409 1415 1423
1477 1473 1469 1465 1460 1461 1463 1463 1466 1465 1462 1458 1458 1456 1456 1456 1455 1456 1455 1454 1454 1455 1451 1451 1450 1441 1435 1435 1427 1425 1413 1410 1406 1420 1424 1416 1418 1419 1415 1410 1407 1408 1411 1414 1420
1473 1470 1467 1463 1459 1458 1459 1460 1459 1459 1456 1454 1456 1456 1455 1454 1455 1455 1454 1455 1451 1446 1445 1446 1442 1435 1437 1432 1428 1419 1410 1407 1411 1417 1421 1410 1410 1411 1410 1405 1406 1407 1409 1414 1422
1469 1466 1464 1462 1459 1457 1457 1457 1457 1456 1456 1453 1454 1455 1456 1455 1454 1454 1454 1452 1449 1445 1442 1442 1440 1438 1436 1431 1425 1417 1413 1409 1413 1414 1416 1417 1404 1406 1403 1401 1405 1408 1410 1415 1418
1463 1462 1462 1459 1461 1457 1455 1455 1457 1457 1456 1452 1453 1454 1455 1454 1455 1454 1454 1455 1450 1446 1443 1440 1436 1439 1436 1432 1426 1422 1417 1416 1415 1414 1406 1408 1407 1400 1400 1399 1403 1408 1412 1415 1422
1458 1458 1458 1458 1456 1456 1456 1455 1457 1457 1442 1452 1453 1454 1454 1454 1455 1454 1454 1454 1450 1446 1449 1440 1440 1439 1436 1431 1432 1426 1423 1419 1413 1411 1408 1404 1409 1391 1396 1398 1398 1401 1409 1414 1415
1453 1453 1454 1456 1454 1454 1455 1455 1458 1457 1440 1451 1451 1451 1452 1453 1454 1454 1455 1456 1454 1450 1445 1443 1444 1444 1438 1437 1434 1430 1424 1418 1414 1417 1418 1401 1407 1395 1397 1398 1395 1397 1405 1412 1417
1448 1448 1450 1452 1453 1452 1455 1457 1456 1441 1453 1450 1448 1449 1448 1450 1453 1452 1452 1450 1450 1450 1450 1445 1442 1442 1443 1436 1429 1429 1427 1428 1429 1425 1413 1411 1410 1398 1395 1397 1396 1399 1402 1408 1415
1445 1446 1445 1445 1450 1452 1456 1456 1445 1443 1446 1447 1447 1448 1446 1449 1451 1452 1450 1446 1451 1447 1444 1445 1441 1441 1442 1439 1437 1432 1430 1429 1426 1416 1403 1413 1413 1406 1403 1404 1405 1409 1409 1413 1417
1446 1445 1444 1446 1449 1452 1458 1451 1438 1444 1447 1444 1447 1444 1445 1449 1449 1449 1448 1447 1451 1449 1448 1445 1441 1442 1443 1442 1441 1441 1436 1431 1431 1417 1414 1403 1407 1406 1404 1407 1410 1412 1414 1417 1418
1450 1449 1448 1448 1450 1455 1457 1448 1446 1447 1447 1446 1439 1442 1437 1444 1446 1446 1447 1455 1454 1454 1452 1447 1450 1444 1443 1442 1441 1441 1444 1439 1435 1436 1423 1407 1412 1415 1416 1417 1413 1415 1416 1419 1424
1453 1451 1452 1452 1455 1459 1455 1449 1449 1450 1450 1446 1443 1443 1443 1444 1446 1447 1450 1458 1458 1456 1454 1451 1451 1446 1443 1444 1444 1442 1448 1449 1455 1445 1434 1418 1431 1426 1424 1423 1418 1418 1421 1424 1427
1454 1453 1454 1456 1459 1459 1453 1454 1455 1453 1453 1450 1449 1448 1446 1448 1449 1450 1452 1458 1464 1461 1455 1457 1454 1454 1445 1449 1449 1448 1452 1455 1445 1446 1437 1437 1445 1428 1426 1425 1422 1423 1425 1426 1428
1459 1459 1459 1460 1459 1459 1457 1457 1457 1455 1453 1451 1451 1453 1454 1451 1452 1455 1458 1468 1467 1464 1462 1462 1462 1457 1445 1452 1453 1454 1453 1452 1458 1460 1443 1439 1444 1431 1431 1430 1429 1427 1425 1426 1426
1463 1462 1464 1465 1465 1463 1458 1458 1457 1460 1457 1455 1455 1456 1454 1454 1456 1458 1461 1469 1470 1468 1469 1467 1470 1467 1458 1462 1464 1463 1458 1456 1461 1456 1453 1440 1445 1434 1438 1439 1438 1435 1434 1433 1434
1467 1469 1469 1467 1468 1465 1462 1463 1460 1458 1460 1458 1457 1457 1456 1455 1457 1459 1463 1469 1471 1471 1470 1468 1471 1468 1464 1463 1464 1463 1461 1457 1464 1462 1461 1448 1450 1443 1444 1443 1444 1442 1439 1437 1440
1472 1473 1472 1469 1469 1465 1465 1465 1463 1462 1462 1460 1460 1461 1461 1459 1464 1461 1464 1465 1466 1471 1470 1472 1473 1478 1473 1464 1464 1462 1457 1457 1457 1456 1454 1450 1446 1442 1446 1446 1446 1446 1446 1444 1441
1474 1475 1476 1473 1471 1469 1465 1466 1466 1465 1468 1468 1466 1463 1464 1472 1471 1471 1471 1472 1474 1473 1472 1474 1476 1473 1461 1462 1469 1462 1455 1456 1454 1454 1457 1454 1447 1451 1450 1450 1450 1449 1448 1448 1447